W0CHP-13 Weather Reports


time (UTC)temp
F
wind
direction
speed
knots
gust
knots
rain 1hr
in
rain 24hr
in
rain mn
in
humidity
%
barometer
mb
20260906134917 70 43 0.0 0.9 0.00 0.00 0.00 90 1018.5
20260906133916 70 54 0.0 1.7 0.00 0.00 0.00 92 1018.5
20260906132915 69 55 0.9 0.9 0.00 0.00 0.00 92 1018.5
20260906131916 69 55 0.0 0.0 0.00 0.00 0.00 92 1018.9
20260906130915 69 62 0.0 0.9 0.00 0.00 0.00 92 1018.9
20260906125918 69 128 0.0 0.9 0.00 0.00 0.00 92 1018.9
20260906124916 69 138 0.0 0.9 0.00 0.00 0.00 93 1018.9
20260906123915 69 60 0.0 0.0 0.00 0.00 0.00 93 1018.5
20260906122918 69 62 0.0 1.7 0.00 0.00 0.00 94 1018.5
20260906121916 69 79 0.0 0.9 0.00 0.00 0.00 93 1018.5
20260906120915 69 50 0.0 0.9 0.00 0.00 0.00 93 1018.2
20260906115918 69 95 0.0 0.0 0.00 0.00 0.00 94 1018.2
20260906114916 68 57 0.0 0.0 0.00 0.00 0.00 95 1017.9
20260906113915 68 57 0.0 0.0 0.00 0.00 0.00 94 1017.9
20260906112917 68 48 0.0 0.0 0.00 0.00 0.00 94 1017.5
20260906111916 68 135 0.0 0.9 0.00 0.00 0.00 94 1017.9
20260906110918 68 46 0.0 0.0 0.00 0.00 0.00 94 1017.5
20260906105917 68 60 0.0 0.9 0.00 0.00 0.00 94 1017.5
20260906104915 68 59 0.0 0.9 0.00 0.00 0.00 94 1017.5
20260906103918 68 36 0.0 0.0 0.00 0.00 0.00 94 1017.5
20260906102916 68 41 0.0 0.9 0.00 0.00 0.00 94 1017.5
20260906101918 68 58 0.0 0.9 0.00 0.00 0.00 93 1017.5
20260906100917 69 56 0.0 0.9 0.00 0.00 0.00 94 1017.5
20260906095915 68 44 0.0 0.0 0.00 0.00 0.00 93 1016.8
20260906094918 69 58 0.0 0.0 0.00 0.00 0.00 94 1016.8
20260906093916 69 61 0.0 0.0 0.00 0.00 0.00 93 1016.8
20260906092915 69 71 0.0 0.0 0.00 0.00 0.00 93 1016.8
20260906091917 69 37 0.0 0.9 0.00 0.00 0.00 93 1016.8
20260906090916 69 58 0.0 0.0 0.00 0.00 0.00 93 1016.8
20260906085915 69 117 0.0 0.9 0.00 0.00 0.00 93 1016.8
20260906084917 69 55 0.0 0.9 0.00 0.00 0.00 93 1017.2
20260906083916 69 66 0.9 6.1 0.00 0.00 0.00 93 1016.8
20260906082915 69 71 0.0 0.9 0.00 0.00 0.00 93 1016.8
20260906081916 69 80 0.0 0.0 0.00 0.00 0.00 93 1016.8
20260906080915 69 59 0.9 2.6 0.00 0.00 0.00 94 1017.2
20260906075917 69 12 0.0 0.0 0.00 0.00 0.00 94 1016.8
20260906074917 69 337 0.0 0.0 0.00 0.00 0.00 94 1017.2
20260906073915 69 36 0.0 1.7 0.00 0.00 0.00 93 1016.8
20260906072917 69 152 0.9 1.7 0.00 0.00 0.00 94 1016.8
20260906071915 69 97 0.0 0.0 0.00 0.00 0.00 94 1016.8
20260906070918 69 69 0.0 0.0 0.00 0.00 0.00 93 1016.8
20260906065916 69 55 0.0 0.0 0.00 0.00 0.00 93 1017.5
20260906064915 69 337 0.0 0.0 0.00 0.00 0.00 93 1017.2
20260906063917 69 13 0.0 0.0 0.00 0.00 0.00 93 1017.5
20260906062916 69 331 0.0 0.0 0.00 0.00 0.00 94 1017.2
20260906061917 69 19 0.0 0.0 0.00 0.00 0.00 93 1017.5
20260906060915 69 22 0.0 0.0 0.00 0.00 0.00 92 1017.2
20260906055917 70 26 0.0 0.0 0.00 0.00 0.00 92 1017.2
20260906054916 70 352 0.0 0.0 0.00 0.00 0.00 92 1017.2
20260906053915 70 13 0.0 0.0 0.00 0.00 0.00 92 1017.2
20260906052917 70 333 0.0 0.0 0.00 0.00 0.00 91 1017.5
20260906051916 70 325 0.0 0.0 0.00 0.00 0.00 91 1017.5
20260906050918 70 325 0.0 0.0 0.00 0.00 0.00 91 1017.2
20260906045917 70 25 0.0 0.0 0.00 0.00 0.00 91 1017.1
20260906044915 70 349 0.0 0.0 0.00 0.00 0.00 90 1016.8
20260906043918 71 331 0.0 0.0 0.00 0.00 0.00 90 1017.2
20260906042918 71 334 0.0 0.0 0.00 0.00 0.00 90 1016.8
20260906041917 71 349 0.0 0.0 0.00 0.00 0.00 89 1017.2
20260906040915 71 352 0.0 0.0 0.00 0.00 0.00 89 1017.2
20260906035917 71 352 0.0 0.0 0.00 0.00 0.00 88 1017.5
20260906034915 72 352 0.0 0.0 0.00 0.00 0.00 88 1017.2
20260906033917 72 352 0.0 0.0 0.00 0.00 0.00 88 1017.1
20260906032916 72 343 0.0 0.0 0.00 0.00 0.00 86 1016.8
20260906031918 73 343 0.0 0.0 0.00 0.00 0.00 86 1016.8
20260906030916 73 343 0.0 0.0 0.00 0.00 0.00 86 1016.5
20260906025915 73 328 0.0 0.0 0.00 0.00 0.00 85 1016.5
20260906024918 73 16 0.0 0.0 0.00 0.00 0.00 85 1016.5
20260906023915 73 330 0.0 0.0 0.00 0.00 0.00 84 1016.1
20260906022918 73 329 0.0 0.0 0.00 0.00 0.00 84 1016.1
20260906021918 73 335 0.0 0.0 0.00 0.00 0.00 83 1015.8
20260906020917 74 336 0.0 0.0 0.00 0.00 0.00 83 1015.8
20260906015918 74 336 0.0 0.0 0.00 0.00 0.00 82 1015.5
20260906014915 74 336 0.0 0.0 0.00 0.00 0.00 83 1015.4
20260906013918 75 335 0.0 0.0 0.00 0.00 0.00 83 1015.4
20260906012917 75 12 0.0 0.0 0.00 0.00 0.00 83 1015.1
20260906011918 75 10 0.0 0.0 0.00 0.00 0.00 80 1014.8
20260906010916 75 16 0.0 0.0 0.00 0.00 0.00 78 1014.8
20260906005915 76 16 0.0 0.0 0.00 0.00 0.00 78 1014.8
20260906004917 77 16 0.0 0.0 0.00 0.00 0.00 77 1014.4
20260906003917 77 0 0.0 0.0 0.00 0.00 0.00 76 1014.1
20260906002916 77 28 0.0 0.9 0.00 0.00 0.00 76 1014.4
20260906001916 78 32 0.9 2.6 0.00 0.00 0.00 75 1014.4
20260906000918 78 2 0.0 1.7 0.00 0.00 0.00 74 1014.4
20260905235916 78 33 0.0 0.9 0.00 0.00 0.00 74 1014.1
20260905234918 79 25 0.0 1.7 0.00 0.00 0.00 73 1014.1
20260905233917 79 21 0.9 1.7 0.00 0.00 0.00 72 1014.1
20260905232915 79 9 0.0 0.9 0.00 0.00 0.00 73 1014.1
20260905231918 79 26 1.7 3.5 0.00 0.00 0.00 71 1014.1
20260905230916 80 64 0.9 2.6 0.00 0.00 0.00 70 1014.4
20260905225918 80 66 0.0 1.7 0.00 0.00 0.00 71 1014.1
20260905224917 80 85 0.0 0.9 0.00 0.00 0.00 71 1014.4
20260905223915 81 39 1.7 2.6 0.00 0.00 0.00 70 1014.4
20260905222918 81 42 0.9 1.7 0.00 0.00 0.00 70 1014.4
20260905221919 81 52 1.7 2.6 0.00 0.00 0.00 69 1014.8
20260905220917 81 30 0.0 0.9 0.00 0.00 0.00 69 1014.8
20260905215917 82 57 0.0 0.9 0.00 0.00 0.00 70 1014.4
20260905214916 82 49 0.9 1.7 0.00 0.00 0.00 69 1014.4
20260905213918 82 53 0.9 2.6 0.00 0.00 0.00 70 1014.8
20260905212915 83 51 1.7 2.6 0.00 0.00 0.00 68 1014.8
20260905211918 84 53 1.7 1.7 0.00 0.00 0.00 66 1014.8
20260905210916 85 57 0.9 1.7 0.00 0.00 0.00 65 1015.1
20260905205918 84 91 0.9 1.7 0.00 0.00 0.00 66 1015.1
20260905204916 83 147 0.0 0.9 0.00 0.00 0.00 68 1015.1
20260905203918 84 76 0.0 0.9 0.00 0.00 0.00 65 1015.1
20260905202918 85 101 0.9 1.7 0.00 0.00 0.00 64 1015.1
20260905201916 84 77 0.0 0.9 0.00 0.00 0.00 66 1015.1
20260905200915 84 73 0.9 0.9 0.00 0.00 0.00 68 1015.1
20260905195916 84 343 0.9 2.6 0.00 0.00 0.00 67 1015.4
20260905194919 83 5 0.9 1.7 0.00 0.00 0.00 70 1015.4
20260905193916 83 353 0.9 0.9 0.00 0.00 0.00 69 1015.4
20260905192917 83 4 0.9 2.6 0.00 0.00 0.00 69 1015.8
20260905191915 82 354 1.7 2.6 0.00 0.00 0.00 68 1015.8
20260905190917 82 340 0.9 2.6 0.00 0.00 0.00 71 1015.8
20260905185916 81 57 0.9 1.7 0.00 0.00 0.00 73 1015.8
20260905184916 81 20 0.9 2.6 0.00 0.00 0.00 73 1015.8
20260905183918 80 317 0.0 0.9 0.00 0.00 0.00 77 1016.1
20260905182917 79 294 0.0 0.9 0.00 0.00 0.00 78 1016.1
20260905181916 79 7 0.9 0.9 0.00 0.00 0.00 77 1016.1
20260905180917 78 45 0.0 0.9 0.00 0.00 0.00 79 1016.1
20260905175915 77 350 0.0 0.9 0.00 0.00 0.00 81 1016.1
20260905174917 77 52 0.0 0.9 0.00 0.00 0.00 81 1016.1
20260905173919 77 1 0.0 0.9 0.00 0.00 0.00 82 1016.2
20260905172917 77 50 0.0 0.9 0.00 0.00 0.00 84 1016.5
20260905171915 77 355 0.9 1.7 0.00 0.00 0.00 83 1016.5
20260905170917 76 71 0.0 0.0 0.00 0.00 0.00 83 1016.5
20260905165916 77 4 0.9 0.9 0.00 0.00 0.00 84 1016.5
20260905164917 76 341 0.0 0.9 0.00 0.00 0.00 84 1016.5
20260905163919 76 53 0.9 0.9 0.00 0.00 0.00 84 1016.5
20260905162916 76 43 0.0 0.9 0.00 0.00 0.00 85 1016.5
20260905161918 75 358 0.0 0.0 0.00 0.00 0.00 86 1016.5
20260905160917 75 36 0.0 0.0 0.00 0.00 0.00 86 1016.5
20260905155915 75 25 0.0 0.0 0.00 0.00 0.00 86 1016.5
20260905154917 75 70 0.9 0.9 0.00 0.00 0.00 86 1016.1
20260905153916 75 53 0.0 0.9 0.00 0.00 0.00 86 1016.1
20260905152918 75 68 0.9 1.7 0.00 0.00 0.00 86 1016.5
20260905151918 75 75 0.0 0.9 0.00 0.00 0.00 87 1016.1
20260905151416 75 59 0.0 0.0 0.00 0.00 0.00 88 1016.1
20260905150415 74 79 0.0 0.9 0.00 0.00 0.00 87 1015.8
20260905145417 74 74 0.0 0.0 0.00 0.00 0.00 88 1015.8
20260905144415 74 69 0.0 0.0 0.00 0.00 0.00 88 1015.8
20260905143417 74 39 0.0 0.0 0.00 0.00 0.00 88 1015.8
20260905143015 74 34 0.0 0.0 0.00 0.00 0.00 88 1015.8
20260905141918 74 43 0.0 0.0 0.00 0.00 0.00 89 1015.5
20260905140916 73 55 0.0 0.9 0.00 0.00 0.00 89 1015.4
20260905135918 73 333 0.0 0.9 0.00 0.00 0.00 89 1015.4